DRK541 VEGT-VQPR

Flight info

Callsign DRK541
Flight time N/A
Altitude 24000
Route GGT W137 DUKUM DCT BOGOP BOGOP1A
Aircraft A319/M-SDE3FGHIRWY/LB1

Departure

Time 2026-05-08 09:19
Airport Lokpriya Gopinath Bordoloi International Airport (VEGT)

Arrival

Time N/A
Airport Paro International Airport (VQPR)
Time Latitude Longitude Altitude Speed Heading
2026-05-08 09:01 26.10726 91.58800 167 ft 0 kts 114°
2026-05-08 09:11 26.10729 91.58792 167 ft 4 kts 114°
2026-05-08 09:11 26.10739 91.58767 167 ft 2 kts 114°
2026-05-08 09:11 26.10743 91.58745 167 ft 4 kts 56°
2026-05-08 09:11 26.10725 91.58728 167 ft 3 kts 23°
2026-05-08 09:12 26.10700 91.58717 167 ft 4 kts 23°
2026-05-08 09:12 26.10675 91.58705 167 ft 4 kts 23°
2026-05-08 09:12 26.10650 91.58693 167 ft 4 kts 23°
2026-05-08 09:12 26.10642 91.58689 167 ft 0 kts 23°
2026-05-08 09:14 26.10642 91.58690 167 ft 1 kts 23°
2026-05-08 09:14 26.10675 91.58705 167 ft 9 kts 23°
2026-05-08 09:15 26.10719 91.58666 168 ft 10 kts 293°
2026-05-08 09:15 26.10747 91.58591 169 ft 11 kts 291°
2026-05-08 09:15 26.10694 91.58536 168 ft 15 kts 200°
2026-05-08 09:15 26.10579 91.58483 169 ft 21 kts 202°
2026-05-08 09:16 26.10434 91.58416 166 ft 24 kts 202°
2026-05-08 09:16 26.10278 91.58344 166 ft 25 kts 202°
2026-05-08 09:16 26.10114 91.58269 165 ft 26 kts 202°
2026-05-08 09:16 26.09946 91.58191 167 ft 26 kts 203°
2026-05-08 09:17 26.09775 91.58112 167 ft 27 kts 202°
2026-05-08 09:17 26.09628 91.58035 167 ft 12 kts 207°
2026-05-08 09:17 26.09615 91.58022 167 ft 7 kts 236°
2026-05-08 09:17 26.09572 91.57969 166 ft 8 kts 197°
2026-05-08 09:18 26.09505 91.57956 165 ft 11 kts 156°
2026-05-08 09:18 26.09517 91.57989 165 ft 5 kts 31°
2026-05-08 09:18 26.09575 91.58020 166 ft 26 kts 22°
2026-05-08 09:18 26.10014 91.58222 167 ft 112 kts 22°
2026-05-08 09:19 26.10957 91.58669 386 ft 165 kts 25°
2026-05-08 09:19 26.12006 91.59168 1360 ft 164 kts 22°
2026-05-08 09:19 26.13155 91.59486 2073 ft 183 kts 354°
2026-05-08 09:19 26.14398 91.58947 2533 ft 205 kts 321°
2026-05-08 09:20 26.15189 91.57556 2975 ft 229 kts 284°
2026-05-08 09:20 26.15495 91.55714 3484 ft 254 kts 278°
2026-05-08 09:20 26.15765 91.53719 4293 ft 266 kts 277°
2026-05-08 09:20 26.16026 91.51697 5561 ft 256 kts 277°
2026-05-08 09:21 26.16286 91.49700 6510 ft 266 kts 277°
2026-05-08 09:21 26.16557 91.47664 7520 ft 267 kts 277°
2026-05-08 09:22 26.18195 91.35676 12641 ft 286 kts 277°
2026-05-08 09:23 26.18498 91.33478 13520 ft 289 kts 277°
2026-05-08 09:23 26.18804 91.31257 14320 ft 292 kts 277°
2026-05-08 09:23 26.19110 91.29017 15108 ft 294 kts 277°
2026-05-08 09:23 26.19419 91.26762 15908 ft 296 kts 277°
2026-05-08 09:24 26.19731 91.24492 16703 ft 298 kts 276°
2026-05-08 09:24 26.20045 91.22205 17505 ft 300 kts 276°
2026-05-08 09:24 26.20360 91.19902 18279 ft 302 kts 276°
2026-05-08 09:24 26.20674 91.17582 18956 ft 304 kts 276°
2026-05-08 09:25 26.20988 91.15254 19644 ft 305 kts 276°
2026-05-08 09:25 26.21306 91.12900 20355 ft 307 kts 275°
2026-05-08 09:25 26.21625 91.10542 21038 ft 309 kts 275°
2026-05-08 09:25 26.21946 91.08172 21724 ft 311 kts 275°
2026-05-08 09:26 26.22269 91.05781 22406 ft 313 kts 275°
2026-05-08 09:26 26.22593 91.03398 23079 ft 316 kts 275°
2026-05-08 09:26 26.22922 91.00971 23630 ft 319 kts 275°
2026-05-08 09:26 26.23252 90.98530 23799 ft 318 kts 275°
2026-05-08 09:27 26.23582 90.96095 23850 ft 318 kts 275°
2026-05-08 09:27 26.23911 90.93665 23860 ft 317 kts 275°
2026-05-08 09:27 26.24240 90.91237 23863 ft 317 kts 275°
2026-05-08 09:27 26.24566 90.88811 23863 ft 317 kts 275°
2026-05-08 09:28 26.24894 90.86351 23867 ft 326 kts 275°
2026-05-08 09:28 26.25227 90.83833 23863 ft 329 kts 275°
2026-05-08 09:28 26.25563 90.81305 23863 ft 330 kts 275°
2026-05-08 09:28 26.25902 90.78772 23868 ft 331 kts 275°
2026-05-08 09:29 26.26244 90.76232 23873 ft 332 kts 275°
2026-05-08 09:29 26.26584 90.73689 23866 ft 332 kts 275°
2026-05-08 09:29 26.26924 90.71143 23866 ft 332 kts 275°
2026-05-08 09:29 26.27264 90.68597 23865 ft 332 kts 276°
2026-05-08 09:30 26.27835 90.66092 23865 ft 336 kts 287°
2026-05-08 09:30 26.28864 90.63739 23866 ft 340 kts 295°
2026-05-08 09:30 26.30026 90.61440 23865 ft 340 kts 294°
2026-05-08 09:30 26.31170 90.59168 23871 ft 341 kts 295°
2026-05-08 09:31 26.32331 90.56866 23869 ft 341 kts 295°
2026-05-08 09:31 26.33494 90.54562 23869 ft 341 kts 295°
2026-05-08 09:31 26.34661 90.52253 23869 ft 341 kts 294°
2026-05-08 09:31 26.35819 90.49951 23868 ft 341 kts 294°
2026-05-08 09:32 26.36982 90.47638 23868 ft 341 kts 294°
2026-05-08 09:32 26.38141 90.45331 23874 ft 341 kts 294°
2026-05-08 09:32 26.39300 90.43026 23821 ft 339 kts 294°
2026-05-08 09:32 26.40452 90.40738 23445 ft 337 kts 295°
2026-05-08 09:33 26.41599 90.38455 22990 ft 336 kts 295°
2026-05-08 09:33 26.42734 90.36195 22527 ft 334 kts 295°
2026-05-08 09:33 26.43872 90.33931 22080 ft 333 kts 295°
2026-05-08 09:33 26.45001 90.31677 21723 ft 332 kts 295°
2026-05-08 09:34 26.46125 90.29429 21530 ft 333 kts 295°
2026-05-08 09:34 26.47243 90.27196 21333 ft 332 kts 295°
2026-05-08 09:34 26.48370 90.24945 21132 ft 332 kts 295°
2026-05-08 09:34 26.49494 90.22698 20940 ft 331 kts 295°
2026-05-08 09:35 26.50615 90.20452 20753 ft 331 kts 295°
2026-05-08 09:35 26.51734 90.18211 20631 ft 330 kts 295°
2026-05-08 09:35 26.52853 90.15972 20511 ft 330 kts 295°
2026-05-08 09:35 26.53973 90.13736 20393 ft 330 kts 295°
2026-05-08 09:36 26.55091 90.11504 20211 ft 329 kts 295°
2026-05-08 09:36 26.56205 90.09274 20022 ft 328 kts 295°
2026-05-08 09:36 26.57316 90.07049 19837 ft 328 kts 295°
2026-05-08 09:36 26.58427 90.04819 19648 ft 328 kts 295°
2026-05-08 09:37 26.59531 90.02602 19456 ft 327 kts 295°
2026-05-08 09:37 26.60635 90.00381 19280 ft 326 kts 295°
2026-05-08 09:37 26.61736 89.98166 19105 ft 326 kts 296°
2026-05-08 09:37 26.62836 89.95956 18943 ft 325 kts 296°
2026-05-08 09:38 26.63935 89.93745 18763 ft 324 kts 296°
2026-05-08 09:38 26.65031 89.91538 18615 ft 324 kts 296°
2026-05-08 09:38 26.66123 89.89338 18504 ft 324 kts 296°
2026-05-08 09:38 26.67202 89.87169 18392 ft 323 kts 296°
2026-05-08 09:39 26.68294 89.84974 18280 ft 323 kts 296°
2026-05-08 09:39 26.69384 89.82774 18157 ft 322 kts 296°
2026-05-08 09:39 26.70471 89.80580 18030 ft 322 kts 296°
2026-05-08 09:39 26.71555 89.78391 17909 ft 321 kts 296°
2026-05-08 09:40 26.72653 89.76209 17927 ft 322 kts 299°
2026-05-08 09:40 26.74050 89.74234 17930 ft 326 kts 312°
2026-05-08 09:40 26.75798 89.72601 17771 ft 326 kts 319°
2026-05-08 09:40 26.77595 89.71054 17567 ft 326 kts 319°
2026-05-08 09:41 26.79391 89.69517 17309 ft 323 kts 319°
2026-05-08 09:41 26.81138 89.68023 17138 ft 316 kts 319°
2026-05-08 09:41 26.82848 89.66559 17005 ft 302 kts 319°
2026-05-08 09:41 26.84475 89.65165 16873 ft 287 kts 319°
2026-05-08 09:42 26.86014 89.63841 16750 ft 271 kts 319°
2026-05-08 09:42 26.87473 89.62583 16660 ft 258 kts 319°
2026-05-08 09:42 26.88857 89.61387 16555 ft 246 kts 319°
2026-05-08 09:42 26.90196 89.60226 16418 ft 242 kts 319°
2026-05-08 09:43 26.91523 89.59073 16300 ft 241 kts 320°
2026-05-08 09:43 26.92846 89.57925 16176 ft 240 kts 319°
2026-05-08 09:43 26.94173 89.56777 16050 ft 240 kts 319°
2026-05-08 09:43 26.95523 89.55684 15940 ft 240 kts 325°
2026-05-08 09:44 26.97022 89.54839 15836 ft 242 kts 335°
2026-05-08 09:44 26.98644 89.54295 15823 ft 245 kts 345°
2026-05-08 09:44 27.00342 89.54048 15868 ft 247 kts 351°
2026-05-08 09:44 27.02029 89.53856 15873 ft 247 kts 351°
2026-05-08 09:45 27.03738 89.53656 15870 ft 246 kts 351°
2026-05-08 09:45 27.05435 89.53455 15872 ft 245 kts 351°
2026-05-08 09:45 27.07131 89.53254 15865 ft 245 kts 351°
2026-05-08 09:45 27.08826 89.53053 15889 ft 246 kts 351°
2026-05-08 09:46 27.10497 89.52856 15868 ft 233 kts 351°
2026-05-08 09:46 27.12089 89.52671 15512 ft 227 kts 352°
2026-05-08 09:46 27.13594 89.52496 15146 ft 209 kts 351°
2026-05-08 09:46 27.14985 89.52336 14818 ft 194 kts 350°
2026-05-08 09:47 27.16283 89.52188 14525 ft 182 kts 351°
2026-05-08 09:47 27.17503 89.52046 14255 ft 172 kts 351°
2026-05-08 09:47 27.18683 89.51906 13984 ft 169 kts 352°
2026-05-08 09:47 27.19841 89.51766 13693 ft 166 kts 353°
2026-05-08 09:48 27.20989 89.51632 13428 ft 166 kts 354°
2026-05-08 09:48 27.22138 89.51606 13164 ft 166 kts
2026-05-08 09:48 27.23285 89.51742 12911 ft 166 kts
2026-05-08 09:48 27.24392 89.52031 12651 ft 165 kts 16°
2026-05-08 09:49 27.25470 89.52470 12415 ft 165 kts 24°
2026-05-08 09:49 27.26493 89.53049 12156 ft 164 kts 28°
2026-05-08 09:49 27.27499 89.53648 11880 ft 163 kts 28°
2026-05-08 09:49 27.28529 89.54197 11645 ft 161 kts 17°
2026-05-08 09:50 27.29618 89.54388 11514 ft 162 kts 359°
2026-05-08 09:50 27.30722 89.54180 11347 ft 160 kts 340°
2026-05-08 09:50 27.31697 89.53586 11199 ft 159 kts 320°
2026-05-08 09:50 27.32447 89.52684 11029 ft 157 kts 301°
2026-05-08 09:51 27.32901 89.51582 10885 ft 155 kts 282°
2026-05-08 09:51 27.33047 89.50382 10687 ft 156 kts 267°
2026-05-08 09:51 27.32993 89.49153 10416 ft 158 kts 265°
2026-05-08 09:51 27.33092 89.47923 10314 ft 159 kts 280°
2026-05-08 09:52 27.33505 89.46754 10060 ft 163 kts 298°
2026-05-08 09:52 27.34262 89.45822 9687 ft 164 kts 325°
2026-05-08 09:52 27.35319 89.45412 9251 ft 161 kts 353°
2026-05-08 09:52 27.36420 89.45364 8885 ft 157 kts
2026-05-08 09:53 27.37506 89.45472 8486 ft 158 kts
2026-05-08 09:53 27.38511 89.45162 8160 ft 152 kts 312°
2026-05-08 09:53 27.38676 89.44052 8045 ft 152 kts 257°
2026-05-08 09:53 27.38975 89.43001 7721 ft 151 kts 330°